Temperature
20 20 20 20 20 19 19 19 19 19 19 19 19 19 18 18 18 18 18 18 18 18 18 18 18 18 18 18 18 18 18 18 18 18 18 18 18 17 17 17 17 17 17
20 21 20 20 20 19 19 19 19 19 19 19 19 18 18 18 18 18 18 18 18 18 18 18 18 18 18 18 18 18 18 18 18 18 18 18 17 17 17 17 17 17 17
21 21 20 20 19 19 19 19 19 19 19 19 18 18 18 18 18 18 18 18 18 18 18 18 18 18 18 18 18 18 18 18 18 17 17 17 17 17 17 17 17 17 17
20 20 20 20 20 19 19 19 19 19 19 19 18 18 18 18 18 18 18 18 18 18 18 18 18 18 18 18 18 18 18 17 17 17 17 17 17 17 17 17 17 17 17
20 20 20 20 20 19 19 19 19 19 19 19 18 18 18 18 18 18 18 18 18 18 18 18 18 18 18 18 18 18 17 17 17 17 17 17 17 17 17 17 17 17 17
20 20 20 20 20 19 19 19 19 19 19 18 18 18 18 18 18 18 18 18 18 18 18 18 18 18 18 18 18 18 17 17 17 17 17 17 17 17 17 17 17 17 17
20 20 20 20 20 19 19 19 19 19 18 18 18 18 18 18 18 18 18 18 18 18 18 18 18 18 18 18 18 18 18 17 17 17 17 17 17 17 17 17 17 17 17
20 20 21 20 20 20 19 19 19 19 19 18 18 18 18 18 18 18 18 18 18 18 18 18 18 18 18 18 18 18 18 18 17 17 17 18 17 17 17 17 17 17 17
21 20 20 20 20 20 19 19 19 19 19 18 18 18 18 18 18 18 18 18 18 18 18 18 18 18 18 18 18 18 18 18 18 17 17 18 17 17 17 17 17 17 17
21 20 19 19 20 20 20 19 19 19 19 19 19 18 18 18 18 18 18 18 18 18 18 18 18 18 18 18 18 18 18 18 18 17 18 18 17 17 17 17 17 17 16
22 21 20 19 19 19 19 19 19 19 19 19 19 18 18 18 18 18 18 18 18 18 18 18 18 18 18 18 18 18 18 18 18 18 18 18 18 17 17 17 17 17 16
22 22 21 20 20 19 19 19 19 18 19 18 18 18 18 18 18 18 18 18 18 18 18 18 18 18 18 18 18 18 18 18 18 18 18 18 18 18 17 17 17 17 17
22 22 21 21 20 20 19 19 19 18 19 18 18 18 18 18 18 18 18 18 18 18 18 18 18 18 18 18 18 18 18 18 18 18 18 18 18 18 18 17 17 17 17
22 22 21 21 20 20 20 19 19 19 19 19 19 18 18 18 18 18 18 18 18 18 18 18 18 18 18 18 18 18 18 18 18 18 18 18 18 18 18 18 17 17 17
22 22 21 21 20 20 20 20 20 19 19 19 19 19 18 18 18 18 18 18 18 18 18 18 18 18 18 18 18 18 18 18 18 18 18 18 18 18 18 18 18 17 17
22 21 21 20 20 20 20 20 19 20 19 19 19 19 19 18 18 18 18 18 18 18 18 18 18 18 18 18 18 18 18 18 18 18 18 18 18 18 18 18 18 18 17
22 21 21 20 20 20 20 20 20 20 20 19 19 19 19 18 18 18 18 18 18 18 18 18 18 18 18 18 18 18 18 18 18 18 18 18 18 18 18 18 18 18 18
22 21 21 20 20 20 20 20 20 20 20 19 19 19 19 19 18 18 18 18 18 18 18 18 18 18 18 18 18 18 18 18 18 18 18 18 18 18 18 18 18 18 18
22 21 21 20 20 20 20 20 20 20 20 20 19 19 19 19 19 18 18 18 18 18 18 18 18 18 18 18 18 18 18 18 18 18 18 18 18 18 18 18 18 18 18
22 21 21 20 20 20 19 19 20 19 20 19 19 19 19 19 19 19 19 18 18 18 18 18 18 18 18 18 18 19 19 19 19 18 18 18 18 18 18 18 18 18 18
21 21 21 20 20 20 19 19 20 20 19 19 19 19 19 19 19 19 18 18 18 18 18 18 18 18 18 18 18 18 19 19 19 19 19 18 18 18 18 18 18 18 18
21 21 21 21 21 20 20 20 19 19 19 19 19 19 19 19 19 19 19 19 18 18 18 18 18 18 18 18 18 18 18 19 19 19 19 19 19 18 18 18 18 18 17
22 21 21 21 21 21 20 20 19 19 19 19 19 19 19 19 19 19 18 18 18 18 18 18 18 18 18 18 18 18 18 18 19 19 19 19 19 19 18 18 18 18 18
22 21 21 21 21 21 20 20 20 19 19 19 19 19 19 19 19 19 19 18 18 18 18 18 18 18 18 18 18 18 18 18 18 19 19 19 19 19 18 18 18 18 18
22 21 21 21 21 20 20 20 20 19 19 19 19 19 19 19 19 19 18 18 18 18 18 18 18 18 18 18 18 18 18 18 18 18 18 19 19 19 18 18 18 18 18
22 21 21 21 21 20 20 20 20 19 19 19 19 19 19 19 19 19 18 18 18 18 18 18 18 18 18 18 18 18 18 18 18 18 18 18 18 19 18 18 18 18 18
Wind_Speed
15 16 16 16 16 16 16 16 16 16 16 16 16 17 17 17 17 17 17 17 17 17 17 17 17 17 17 18 18 18 18 19 19 20 20 19 18 17 16 18 19 18 19
18 18 17 16 16 16 16 15 15 15 15 15 15 15 16 16 17 17 17 16 17 17 17 17 17 17 17 17 17 16 16 17 18 19 19 18 16 15 15 17 18 16 18
19 18 17 16 16 16 15 15 15 15 14 14 14 14 15 15 15 16 16 16 16 17 17 17 16 16 16 16 15 15 14 15 15 16 17 16 16 16 18 19 19 17 17
19 18 17 17 16 15 15 14 14 14 14 14 14 14 14 15 15 15 16 16 16 16 16 16 16 15 15 14 13 12 11 11 11 11 11 14 15 16 17 17 17 16 16
18 19 18 17 16 15 14 14 14 14 13 13 13 13 14 14 15 15 15 15 16 16 16 16 16 15 14 13 11 9 7 6 4 8 15 17 15 15 16 16 16 15 15
18 19 18 17 16 15 14 13 13 13 13 13 13 13 13 14 14 15 15 15 15 15 16 15 15 14 12 11 8 6 4 2 3 10 16 16 14 14 15 15 15 14 14
19 19 18 17 16 14 13 13 12 12 12 12 12 12 12 13 13 14 14 14 15 15 14 14 13 12 11 9 6 3 3 4 4 12 16 16 14 14 14 14 14 13 13
19 19 18 16 15 14 13 12 12 11 11 11 12 12 12 12 13 13 14 14 14 13 13 13 12 11 9 6 4 3 5 6 9 16 17 15 14 14 14 13 13 12 12
19 18 16 16 14 13 12 12 11 11 11 11 11 11 12 12 12 13 13 13 13 12 12 11 11 9 7 5 2 3 5 6 5 13 16 14 14 14 13 13 12 12 11
17 16 15 16 15 14 12 11 11 11 11 11 11 11 11 12 12 12 12 12 11 11 10 10 9 8 6 3 1 3 5 7 5 14 14 14 14 13 12 12 11 11 11
13 13 14 15 14 14 14 13 12 11 11 10 10 10 11 10 11 10 12 11 10 10 9 8 8 7 6 4 3 3 6 3 11 13 13 15 14 13 12 11 11 11 10
11 11 11 11 10 10 12 12 11 10 11 9 9 10 8 7 9 11 12 10 9 9 8 8 8 7 7 7 7 6 5 2 10 13 13 15 14 12 11 11 10 10 10
10 9 12 11 7 7 8 9 8 8 10 9 8 8 8 8 10 11 9 9 9 9 8 9 9 9 7 5 5 5 3 2 8 13 13 14 14 12 11 11 10 9 9
10 9 11 11 7 4 5 5 6 6 7 7 9 8 7 4 5 7 7 8 9 7 7 7 7 6 4 3 2 2 1 3 9 12 13 14 14 12 11 11 10 9 9
9 8 9 10 7 4 3 1 4 4 6 7 7 6 7 5 3 4 3 4 6 7 6 4 3 3 2 1 1 1 2 3 7 11 12 14 14 13 12 11 10 10 10
10 9 10 9 8 6 3 1 0 3 4 6 7 8 7 5 5 4 3 2 3 4 4 4 3 3 2 1 1 0 1 2 5 10 12 13 14 14 13 12 11 11 11
10 9 9 9 9 7 6 4 4 4 7 5 6 8 6 6 6 4 3 3 3 3 3 2 2 2 3 3 3 2 2 3 4 6 12 13 13 14 15 14 13 12 12
11 10 9 9 11 8 5 4 3 3 4 5 7 8 7 6 7 4 3 3 4 4 4 2 2 2 2 2 2 3 2 3 5 6 8 12 14 13 16 17 16 15 14
10 10 9 6 10 9 7 5 4 2 1 4 5 6 7 7 6 4 3 3 4 3 2 3 3 2 2 2 3 3 3 4 4 7 7 9 12 14 15 18 19 18 17
10 10 9 7 7 8 6 5 3 3 2 2 3 5 7 7 7 5 4 3 4 2 2 2 1 2 2 2 4 2 3 4 5 5 6 8 10 12 14 16 17 17 19
11 10 10 9 8 7 5 6 5 4 3 3 4 6 6 6 7 5 3 3 4 3 3 3 3 3 3 3 2 2 4 5 4 4 4 4 6 10 12 15 16 15 16
12 11 10 10 9 8 6 5 4 4 3 3 3 4 6 7 7 7 5 4 4 3 4 4 3 3 4 4 3 1 2 3 3 5 4 5 5 6 7 12 13 14 13
13 12 10 10 9 9 7 5 4 3 3 3 4 4 5 7 7 5 5 5 4 4 4 5 4 5 4 4 3 3 2 2 2 3 4 4 3 3 3 4 8 10 11
13 12 9 10 9 8 8 7 7 5 5 4 3 4 5 6 6 6 5 5 4 4 4 5 5 4 4 4 3 3 4 2 2 2 3 2 3 4 4 4 5 9 11
12 11 10 9 8 8 7 6 5 5 4 3 3 4 4 4 5 5 5 5 4 4 4 4 3 4 4 5 4 3 4 4 4 3 3 2 2 3 3 4 3 4 8
11 10 10 9 8 8 7 6 5 5 4 4 3 3 4 3 4 5 5 4 4 4 5 4 4 5 4 4 4 3 3 3 3 4 4 4 3 3 3 3 3 3 5
Wind_Direction
108 108 106 103 100 99 98 96 94 92 90 88 87 87 89 89 89 90 92 92 92 91 90 90 89 88 88 88 88 90 92 95 98 99 99 100 100 102 105 108 102 102 105
111 111 108 105 102 101 100 98 97 96 93 91 90 89 90 92 92 92 93 93 93 93 93 93 93 92 92 93 93 96 99 103 106 107 105 100 98 98 99 100 100 107 107
112 115 112 107 105 103 101 99 99 98 96 93 92 92 93 95 95 96 96 94 95 95 94 95 95 95 94 95 96 100 105 110 115 119 114 103 97 94 95 98 104 108 107
118 118 113 111 108 105 103 102 101 100 98 96 95 93 93 95 96 97 98 97 97 97 97 97 98 97 96 98 100 104 109 115 126 130 112 105 102 100 101 104 106 107 108
110 111 114 113 110 108 105 103 102 101 100 98 97 95 95 95 97 98 99 99 98 99 99 98 98 98 99 101 103 105 107 115 128 109 96 95 98 106 106 108 109 109 108
118 117 118 117 114 111 108 106 105 105 104 103 100 98 98 98 98 100 100 101 100 100 99 99 100 100 100 102 103 100 87 73 88 106 106 106 106 110 110 110 111 111 110
119 120 122 121 118 115 113 111 109 107 108 108 105 103 103 102 101 103 103 103 103 102 102 101 101 102 102 101 97 79 24 353 112 104 102 103 111 115 113 112 113 112 113
123 122 124 125 123 120 118 114 112 112 111 111 111 109 108 108 106 107 107 106 106 106 105 105 105 105 104 99 82 23 347 352 95 105 104 107 116 116 115 114 114 114 116
123 127 135 134 129 126 123 120 118 118 117 116 117 118 118 117 115 113 111 110 112 112 112 111 111 112 110 104 73 352 338 346 79 113 112 114 120 120 121 121 120 118 119
129 135 141 142 141 142 134 130 128 127 126 125 128 130 129 127 127 126 120 116 118 120 121 122 124 127 130 134 156 309 319 319 103 104 109 122 127 126 126 127 127 125 125
128 137 145 141 152 153 143 141 144 139 140 141 144 148 152 151 143 142 123 127 130 133 136 140 145 151 160 176 210 262 291 270 99 98 108 128 133 133 134 134 134 133 132
135 143 136 137 145 150 139 147 158 155 154 166 159 165 178 164 139 129 134 139 144 150 157 168 175 184 197 188 203 224 254 212 111 108 120 134 137 139 141 143 142 142 141
147 146 135 127 140 141 130 157 152 150 154 167 165 166 168 150 137 135 149 154 167 175 182 177 195 211 206 198 200 203 215 116 105 114 131 141 144 146 149 151 151 152 151
157 151 137 132 138 121 128 139 149 158 163 160 162 173 154 151 146 149 161 171 179 184 188 186 205 203 186 182 186 165 113 92 106 122 141 150 151 155 157 160 161 163 164
155 148 128 131 125 118 105 200 167 153 152 151 160 166 153 158 153 144 153 177 186 176 181 197 184 150 129 170 213 141 98 79 116 129 144 160 162 165 168 172 175 177 177
161 151 140 139 137 141 154 223 166 144 131 152 162 160 164 154 142 138 152 197 206 173 167 188 163 152 175 203 223 223 132 133 130 137 152 167 173 175 178 181 185 188 189
161 151 146 152 150 161 177 195 193 189 168 165 149 150 164 162 148 167 167 200 206 171 158 179 199 185 194 194 201 213 191 172 165 161 161 170 179 187 190 191 193 196 197
160 154 164 172 157 166 186 204 221 205 158 153 150 154 166 164 159 179 187 202 192 195 178 201 230 209 219 207 206 212 196 178 182 189 188 181 181 186 195 199 200 202 204
156 156 166 171 158 169 182 193 228 212 156 156 157 158 168 171 174 196 211 184 195 206 206 221 190 212 230 229 238 217 214 203 199 205 199 198 190 183 186 197 203 206 208
158 160 165 171 163 167 177 185 221 223 195 194 169 161 164 178 187 206 216 190 211 218 229 228 189 221 230 237 259 260 249 226 208 210 205 203 200 197 192 187 196 209 213
163 166 168 177 172 173 182 185 197 205 204 205 194 171 177 194 193 202 232 183 213 222 221 215 215 222 228 228 240 269 273 255 219 211 219 215 205 207 199 181 188 196 205
167 170 172 179 178 185 188 189 195 191 197 208 210 167 184 201 206 204 209 217 209 218 226 236 238 234 232 215 209 217 274 284 254 229 216 216 222 208 202 198 197 191 195
174 179 179 177 180 188 187 184 201 190 215 212 194 185 197 207 209 228 203 217 218 216 213 219 226 229 238 235 213 198 216 241 270 259 231 227 218 206 210 194 196 195 199
176 177 171 172 178 182 185 190 198 200 206 213 198 190 195 206 209 213 212 215 228 238 222 219 214 219 228 246 241 223 222 215 228 287 273 226 213 210 208 219 212 202 198
173 172 171 167 175 179 187 194 201 214 218 218 203 198 198 205 211 219 212 212 220 235 238 232 223 220 227 234 242 235 228 228 223 227 264 270 249 223 204 210 217 196 200
170 170 169 167 175 179 186 197 201 216 232 237 218 209 206 210 217 217 221 213 222 229 237 234 228 227 236 249 255 257 249 230 223 219 237 249 246 241 230 222 208 189 208
Height
1526 1527 1528 1529 1530 1531 1532 1533 1534 1534 1535 1536 1537 1537 1538 1539 1540 1541 1542 1543 1544 1545 1546 1547 1547 1548 1549 1550 1551 1553 1554 1555 1556 1557 1558 1560 1561 1562 1563 1564 1565 1566 1567
1527 1528 1530 1531 1532 1534 1535 1536 1536 1537 1538 1539 1540 1541 1541 1542 1543 1544 1545 1545 1546 1547 1548 1549 1550 1551 1552 1553 1554 1555 1556 1558 1559 1560 1561 1562 1563 1565 1566 1567 1567 1568 1570
1528 1530 1532 1533 1535 1536 1537 1538 1539 1540 1541 1542 1543 1543 1544 1545 1546 1547 1547 1548 1549 1550 1551 1552 1552 1553 1554 1555 1556 1558 1559 1560 1561 1562 1564 1565 1566 1567 1568 1569 1570 1571 1572
1530 1532 1534 1535 1537 1538 1539 1541 1542 1542 1543 1544 1545 1546 1547 1548 1548 1549 1550 1551 1552 1553 1553 1554 1555 1556 1557 1558 1559 1561 1562 1563 1564 1565 1567 1567 1568 1569 1570 1571 1572 1573 1574
1533 1534 1536 1537 1539 1540 1542 1543 1544 1545 1546 1547 1548 1548 1549 1550 1551 1552 1553 1554 1554 1555 1556 1557 1558 1559 1560 1561 1562 1563 1565 1566 1567 1568 1569 1570 1571 1571 1572 1573 1574 1575 1576
1534 1536 1537 1539 1541 1542 1544 1545 1546 1547 1548 1549 1550 1551 1552 1553 1553 1554 1555 1556 1557 1558 1558 1559 1560 1561 1562 1563 1564 1566 1567 1568 1569 1571 1571 1572 1572 1573 1574 1575 1576 1577 1578
1537 1537 1539 1541 1543 1544 1546 1547 1548 1549 1550 1551 1552 1553 1554 1555 1556 1557 1558 1559 1559 1560 1561 1562 1563 1564 1565 1566 1567 1568 1569 1570 1572 1572 1573 1574 1574 1575 1576 1577 1578 1579 1580
1538 1539 1541 1543 1545 1546 1548 1549 1550 1551 1552 1553 1554 1555 1556 1557 1558 1559 1560 1561 1562 1562 1563 1564 1565 1566 1567 1568 1569 1570 1571 1572 1574 1574 1574 1575 1576 1577 1577 1578 1579 1580 1581
1540 1541 1543 1545 1547 1548 1550 1551 1552 1553 1554 1555 1556 1557 1558 1559 1560 1561 1562 1563 1564 1565 1566 1567 1568 1569 1569 1570 1571 1572 1573 1574 1575 1575 1575 1576 1577 1578 1579 1580 1581 1582 1583
1543 1544 1545 1547 1549 1550 1551 1553 1554 1555 1556 1557 1558 1559 1560 1561 1562 1563 1564 1565 1566 1567 1568 1569 1570 1571 1572 1573 1574 1575 1575 1576 1577 1577 1577 1578 1578 1579 1580 1581 1582 1583 1584
1545 1547 1548 1549 1551 1552 1553 1554 1555 1557 1558 1559 1560 1561 1562 1563 1564 1565 1566 1567 1568 1569 1570 1571 1572 1573 1574 1575 1576 1577 1577 1578 1578 1578 1578 1579 1579 1580 1581 1582 1583 1584 1585
1546 1548 1550 1552 1553 1555 1556 1556 1557 1558 1559 1560 1562 1563 1564 1565 1567 1567 1568 1569 1569 1570 1571 1573 1574 1575 1575 1576 1577 1578 1578 1579 1579 1579 1579 1580 1580 1580 1581 1582 1583 1584 1585
1547 1549 1551 1552 1554 1556 1557 1558 1559 1560 1561 1562 1563 1565 1566 1567 1568 1569 1569 1570 1571 1572 1573 1574 1575 1576 1577 1578 1579 1579 1580 1580 1580 1579 1580 1580 1581 1581 1582 1583 1584 1585 1586
1546 1549 1551 1552 1554 1556 1558 1559 1560 1561 1562 1563 1564 1566 1567 1568 1569 1570 1570 1571 1572 1573 1574 1575 1576 1577 1578 1579 1580 1580 1581 1581 1580 1580 1580 1581 1581 1582 1582 1583 1584 1585 1586
1546 1549 1551 1552 1553 1555 1557 1559 1561 1562 1563 1564 1565 1566 1568 1569 1570 1571 1571 1572 1573 1574 1575 1576 1577 1577 1578 1579 1580 1580 1581 1581 1581 1581 1581 1581 1581 1582 1582 1583 1583 1584 1585
1545 1548 1550 1551 1552 1554 1556 1558 1561 1562 1564 1565 1566 1566 1568 1569 1569 1570 1571 1572 1573 1574 1575 1576 1576 1577 1578 1578 1579 1580 1580 1581 1581 1581 1581 1581 1581 1581 1582 1582 1583 1584 1584
1544 1547 1549 1550 1551 1553 1556 1558 1560 1562 1563 1565 1566 1566 1567 1568 1569 1570 1571 1572 1573 1574 1575 1575 1576 1576 1577 1578 1578 1579 1579 1580 1580 1580 1580 1580 1581 1581 1581 1582 1582 1583 1584
1543 1545 1547 1550 1551 1552 1555 1557 1559 1562 1563 1564 1565 1565 1566 1568 1568 1569 1571 1571 1572 1573 1574 1575 1575 1576 1577 1577 1578 1578 1578 1579 1579 1579 1580 1579 1580 1580 1581 1581 1582 1582 1583
1541 1543 1546 1548 1550 1551 1554 1556 1558 1560 1561 1563 1563 1564 1565 1566 1567 1568 1570 1571 1571 1572 1573 1574 1574 1575 1575 1576 1576 1577 1577 1577 1578 1578 1579 1579 1579 1579 1579 1580 1580 1581 1581
1539 1542 1544 1546 1549 1550 1552 1554 1556 1558 1560 1561 1562 1563 1564 1565 1566 1567 1568 1569 1570 1571 1572 1572 1573 1573 1574 1574 1575 1575 1575 1576 1576 1576 1577 1577 1577 1578 1578 1578 1578 1579 1579
1537 1539 1541 1544 1546 1548 1550 1552 1554 1556 1557 1559 1560 1561 1562 1563 1564 1565 1566 1567 1568 1569 1570 1570 1571 1571 1572 1573 1573 1573 1573 1573 1573 1574 1574 1575 1575 1576 1576 1576 1575 1576 1576
1534 1537 1539 1541 1543 1546 1548 1550 1552 1554 1555 1556 1558 1559 1560 1561 1562 1563 1564 1565 1566 1566 1567 1568 1569 1569 1570 1571 1571 1572 1571 1572 1571 1571 1571 1572 1572 1573 1573 1574 1574 1574 1574
1532 1534 1537 1539 1541 1543 1546 1548 1550 1551 1553 1555 1556 1557 1558 1559 1560 1561 1562 1562 1563 1564 1564 1565 1566 1566 1567 1568 1569 1570 1570 1569 1569 1569 1569 1569 1570 1570 1570 1571 1571 1570 1571
1530 1532 1535 1537 1539 1541 1544 1546 1548 1549 1551 1552 1554 1555 1556 1557 1558 1558 1559 1560 1561 1561 1562 1562 1563 1563 1564 1565 1566 1566 1567 1567 1567 1566 1567 1567 1566 1566 1567 1568 1568 1568 1568
1528 1530 1532 1535 1537 1539 1541 1543 1546 1548 1549 1551 1552 1553 1554 1554 1555 1556 1556 1557 1557 1558 1559 1559 1560 1560 1561 1562 1563 1563 1564 1564 1564 1565 1564 1564 1564 1564 1564 1564 1564 1565 1565
1526 1528 1530 1532 1534 1537 1539 1541 1543 1545 1547 1548 1549 1550 1551 1551 1552 1553 1553 1554 1554 1554 1555 1556 1557 1557 1557 1558 1559 1560 1561 1561 1561 1561 1561 1560 1560 1560 1560 1561 1561 1561 1561